This is the latest recevied weather packets stored in our database for station/object G4KVI. If no packets are shown the sender has not sent any weather packets the latest 10 day(s).
| Time | Temp. | Humidity | Pressure | Rain* | Wind** | Luminosity | Snow |
|---|---|---|---|---|---|---|---|
| 1788426904 | 19.44° C | 84% | 1020.5 hPa | 0 mm | - | 149 W/m² | - |
| 1788426603 | 20° C | 83% | 1020.7 hPa | 0 mm | - | 198 W/m² | - |
| 1788426303 | 20.56° C | 81% | 1020.4 hPa | 0 mm | - | 78 W/m² | - |
| 1788426004 | 20.56° C | 79% | 1020.4 hPa | 0 mm | - | 95 W/m² | - |
| 1788425704 | 21.11° C | 79% | 1020.2 hPa | 0 mm | - | 283 W/m² | - |
| 1788425403 | 20.56° C | 81% | 1020 hPa | 0 mm | - | 300 W/m² | - |
| 1788425104 | 20.56° C | 81% | 1020.3 hPa | 0 mm | - | 327 W/m² | - |
| 1788424804 | 20.56° C | 80% | 1020.3 hPa | 0 mm | - | 239 W/m² | - |
| 1788424504 | 20.56° C | 81% | 1020.2 hPa | 0 mm | - | 192 W/m² | - |
| 1788424204 | 20.56° C | 82% | 1020.3 hPa | 0 mm | - | 177 W/m² | - |
| 1788423904 | 20.56° C | 83% | 1020.3 hPa | 0 mm | - | 408 W/m² | - |
| 1788423604 | 20.56° C | 83% | 1020.4 hPa | 0 mm | - | 196 W/m² | - |
| 1788423003 | 19.44° C | 86% | 1020.2 hPa | 0 mm | - | 347 W/m² | - |
| 1788422704 | 19.44° C | 87% | 1020.1 hPa | 0 mm | - | 207 W/m² | - |
| 1788422403 | 19.44° C | 87% | 1020.2 hPa | 0 mm | - | 184 W/m² | - |
| 1788422103 | 18.89° C | 87% | 1020.3 hPa | 0 mm | - | 81 W/m² | - |
| 1788421804 | 18.89° C | 87% | 1020.2 hPa | 0 mm | - | 129 W/m² | - |
| 1788421503 | 18.89° C | 86% | 1020.1 hPa | 0 mm | - | 89 W/m² | - |
| 1788421203 | 19.44° C | 86% | 1020.2 hPa | 0 mm | - | 63 W/m² | - |
| 1788420903 | 19.44° C | 85% | 1020 hPa | 0 mm | - | 63 W/m² | - |
| 1788420603 | 19.44° C | 85% | 1020 hPa | 0 mm | - | 101 W/m² | - |
| 1788420303 | 19.44° C | 85% | 1019.9 hPa | 0 mm | - | 113 W/m² | - |
| 1788420003 | 19.44° C | 85% | 1019.9 hPa | 0 mm | - | 116 W/m² | - |
| 1788419703 | 18.89° C | 86% | 1019.6 hPa | 0 mm | - | 121 W/m² | - |
| 1788419403 | 18.89° C | 87% | 1019.7 hPa | 0 mm | - | 135 W/m² | - |
* Rain latest hour (hover to see other rain measurements)
** Current wind speed in m/s (hover to see current wind gust speed)